TimeMDT,TemperatureF,Dew PointF,Humidity,Sea Level PressureIn,VisibilityMPH,Wind Direction,Wind SpeedMPH,Gust SpeedMPH,PrecipitationIn,Events,Conditions,WindDirDegrees,DateUTC
12:15 AM,23.0,19.4,86,30.16,10.0,NW,5.8,-,N/A,,Clear,310,2013-03-10 07:15:00
12:35 AM,21.2,19.4,93,30.16,10.0,NNW,3.5,-,N/A,,Clear,330,2013-03-10 07:35:00
12:55 AM,21.2,19.4,93,30.17,10.0,NW,5.8,-,N/A,,Scattered Clouds,320,2013-03-10 07:55:00
1:15 AM,21.2,17.6,86,30.18,10.0,Calm,Calm,-,N/A,,Scattered Clouds,0,2013-03-10 08:15:00
1:35 AM,21.2,17.6,86,30.17,10.0,West,3.5,-,N/A,,Clear,280,2013-03-10 08:35:00
1:55 AM,19.4,17.6,93,30.18,10.0,Calm,Calm,-,N/A,,Clear,0,2013-03-10 08:55:00
3:35 AM,19.4,17.6,93,30.17,10.0,Calm,Calm,-,N/A,,Clear,0,2013-03-10 09:35:00
3:55 AM,19.4,17.6,93,30.17,10.0,North,3.5,-,N/A,,Clear,350,2013-03-10 09:55:00
4:15 AM,19.4,17.6,93,30.17,10.0,NW,3.5,-,N/A,,Clear,320,2013-03-10 10:15:00
4:35 AM,19.4,17.6,93,30.17,10.0,Calm,Calm,-,N/A,,Clear,0,2013-03-10 10:35:00
4:55 AM,19.4,17.6,93,30.17,10.0,Calm,Calm,-,N/A,,Clear,0,2013-03-10 10:55:00
5:15 AM,19.4,15.8,86,30.18,10.0,Calm,Calm,-,N/A,,Clear,0,2013-03-10 11:15:00
6:35 AM,17.6,14.0,86,30.19,10.0,Calm,Calm,-,N/A,,Clear,0,2013-03-10 12:35:00
6:55 AM,17.6,15.8,93,30.19,10.0,NNE,4.6,-,N/A,,Clear,30,2013-03-10 12:55:00
7:15 AM,17.6,14.0,86,30.19,10.0,Calm,Calm,-,N/A,,Clear,0,2013-03-10 13:15:00
7:35 AM,15.8,14.0,93,30.20,10.0,Calm,Calm,-,N/A,,Clear,0,2013-03-10 13:35:00
7:55 AM,17.6,14.0,86,30.20,10.0,NNE,4.6,-,N/A,,Clear,30,2013-03-10 13:55:00
8:15 AM,17.6,15.8,93,30.21,10.0,Calm,Calm,-,N/A,,Clear,0,2013-03-10 14:15:00
8:35 AM,19.4,17.6,93,30.21,10.0,Calm,Calm,-,N/A,,Clear,0,2013-03-10 14:35:00
8:55 AM,21.2,19.4,93,30.21,10.0,Calm,Calm,-,N/A,,Clear,0,2013-03-10 14:55:00
9:15 AM,23.0,19.4,86,30.22,10.0,Calm,Calm,-,N/A,,Clear,0,2013-03-10 15:15:00
9:35 AM,24.8,17.6,74,30.22,10.0,Calm,Calm,-,N/A,,Clear,0,2013-03-10 15:35:00
9:55 AM,26.6,19.4,74,30.22,10.0,Calm,Calm,-,N/A,,Clear,0,2013-03-10 15:55:00
10:15 AM,28.4,19.4,69,30.22,10.0,NNW,4.6,-,N/A,,Clear,340,2013-03-10 16:15:00
10:35 AM,30.2,17.6,60,30.22,10.0,Calm,Calm,-,N/A,,Clear,0,2013-03-10 16:35:00
10:55 AM,33.8,14.0,44,30.21,10.0,NW,17.3,20.7,N/A,,Clear,310,2013-03-10 16:55:00
11:15 AM,33.8,14.0,44,30.21,10.0,NW,15.0,-,N/A,,Scattered Clouds,310,2013-03-10 17:15:00
11:35 AM,35.6,14.0,41,30.21,10.0,NW,12.7,16.1,N/A,,Scattered Clouds,320,2013-03-10 17:35:00
11:55 AM,37.4,17.6,45,30.19,10.0,NE,5.8,11.5,N/A,,Scattered Clouds,40,2013-03-10 17:55:00
12:15 PM,39.2,14.0,36,30.19,10.0,WNW,15.0,18.4,N/A,,Clear,290,2013-03-10 18:15:00
12:35 PM,39.2,14.0,36,30.19,10.0,NW,15.0,-,N/A,,Clear,310,2013-03-10 18:35:00
12:55 PM,41.0,14.0,33,30.19,10.0,NW,18.4,23.0,N/A,,Clear,310,2013-03-10 18:55:00
1:15 PM,41.0,14.0,33,30.19,10.0,NW,11.5,-,N/A,,Clear,310,2013-03-10 19:15:00
1:35 PM,41.0,14.0,33,30.19,10.0,WNW,17.3,23.0,N/A,,Clear,300,2013-03-10 19:35:00
1:55 PM,41.0,14.0,33,30.17,10.0,West,20.7,25.3,N/A,,Clear,280,2013-03-10 19:55:00
2:15 PM,41.0,14.0,33,30.16,10.0,West,23.0,26.5,N/A,,Clear,280,2013-03-10 20:15:00
2:35 PM,42.8,14.0,31,30.15,10.0,West,18.4,26.5,N/A,,Clear,280,2013-03-10 20:35:00
2:55 PM,42.8,12.2,29,30.15,10.0,WNW,21.9,29.9,N/A,,Clear,290,2013-03-10 20:55:00
3:15 PM,42.8,12.2,29,30.15,10.0,WNW,23.0,28.8,N/A,,Clear,290,2013-03-10 21:15:00
3:35 PM,41.0,12.2,31,30.14,10.0,WNW,21.9,29.9,N/A,,Clear,290,2013-03-10 21:35:00
3:55 PM,41.0,14.0,33,30.13,10.0,West,20.7,-,N/A,,Clear,280,2013-03-10 21:55:00
4:15 PM,42.8,12.2,29,30.13,10.0,WNW,21.9,26.5,N/A,,Clear,290,2013-03-10 22:15:00
4:35 PM,42.8,12.2,29,30.12,10.0,WNW,24.2,28.8,N/A,,Clear,300,2013-03-10 22:35:00
4:55 PM,41.0,10.4,29,30.13,10.0,WNW,20.7,31.1,N/A,,Clear,290,2013-03-10 22:55:00
5:15 PM,41.0,12.2,31,30.13,10.0,WNW,19.6,29.9,N/A,,Clear,300,2013-03-10 23:15:00
5:35 PM,39.2,14.0,36,30.13,10.0,WNW,23.0,29.9,N/A,,Clear,300,2013-03-10 23:35:00
5:55 PM,37.4,14.0,38,30.13,10.0,WNW,24.2,32.2,N/A,,Clear,300,2013-03-10 23:55:00
6:15 PM,37.4,15.8,41,30.13,10.0,WNW,20.7,27.6,N/A,,Clear,300,2013-03-11 00:15:00
6:35 PM,35.6,15.8,44,30.13,10.0,WNW,20.7,27.6,N/A,,Clear,290,2013-03-11 00:35:00
6:55 PM,33.8,17.6,52,30.14,10.0,WNW,18.4,25.3,N/A,,Clear,300,2013-03-11 00:55:00
7:15 PM,33.8,17.6,52,30.14,10.0,NW,17.3,-,N/A,,Clear,310,2013-03-11 01:15:00
7:35 PM,32.0,17.6,55,30.15,10.0,WNW,16.1,-,N/A,,Clear,300,2013-03-11 01:35:00
8:15 PM,32.0,17.6,55,30.15,10.0,WNW,16.1,-,N/A,,Clear,290,2013-03-11 02:15:00
8:35 PM,32.0,17.6,55,30.16,10.0,WNW,13.8,-,N/A,,Clear,300,2013-03-11 02:35:00
8:55 PM,32.0,17.6,55,30.16,10.0,WNW,15.0,18.4,N/A,,Clear,300,2013-03-11 02:55:00
9:15 PM,32.0,17.6,55,30.16,10.0,NW,9.2,-,N/A,,Clear,310,2013-03-11 03:15:00
9:35 PM,30.2,17.6,60,30.16,10.0,WNW,8.1,-,N/A,,Clear,290,2013-03-11 03:35:00
9:55 PM,30.2,17.6,60,30.16,10.0,West,10.4,-,N/A,,Clear,260,2013-03-11 03:55:00
10:15 PM,30.2,17.6,60,30.16,10.0,North,4.6,-,N/A,,Clear,350,2013-03-11 04:15:00
10:35 PM,28.4,17.6,64,30.16,10.0,NW,4.6,-,N/A,,Clear,320,2013-03-11 04:35:00
11:35 PM,30.2,15.8,55,30.16,10.0,West,10.4,-,N/A,,Clear,270,2013-03-11 05:35:00
11:55 PM,28.4,17.6,64,30.16,10.0,West,13.8,-,N/A,,Clear,260,2013-03-11 05:55:00
12:15 AM,30.2,17.6,60,30.14,10.0,West,12.7,-,N/A,,Clear,280,2013-03-11 06:15:00
12:35 AM,28.4,17.6,64,30.14,10.0,WNW,11.5,-,N/A,,Clear,290,2013-03-11 06:35:00
12:55 AM,28.4,17.6,64,30.14,10.0,West,13.8,-,N/A,,Clear,280,2013-03-11 06:55:00